Temperature
16 16 16 16 16 16 16 16 16 16 16 16 16 16 16 16 16 16 16 16 16 16 16 16 16 16 16 17 17 17 17 17 17 17 17 17 18 18 18 18 18 18 18
16 16 16 16 16 16 16 16 16 16 16 16 16 16 16 16 16 16 16 16 16 16 16 16 16 16 16 16 16 17 17 17 17 17 17 17 17 17 18 18 18 18 18
16 16 16 16 16 15 15 15 15 16 15 15 16 16 16 16 16 16 16 16 16 16 16 16 16 16 16 16 16 16 16 17 17 17 17 17 17 17 17 17 17 17 17
16 16 16 15 15 15 15 15 15 15 15 15 16 16 16 15 15 15 15 15 15 15 16 16 16 16 16 16 16 16 16 16 16 17 17 17 17 17 17 17 17 17 17
15 15 15 15 15 15 15 15 15 15 15 15 15 16 15 16 15 15 15 15 15 15 15 15 15 16 16 16 16 16 16 16 16 16 17 17 17 17 17 17 17 17 17
15 15 15 15 15 15 15 15 15 15 15 15 15 15 15 15 15 15 15 15 15 15 15 15 15 15 15 16 16 16 16 16 16 16 16 17 17 17 17 17 17 17 17
15 15 15 15 15 15 15 15 15 15 15 15 15 15 15 15 15 15 15 15 15 15 15 15 15 15 15 15 15 15 16 16 16 16 16 16 16 16 17 17 17 17 17
15 15 15 15 15 15 15 14 14 15 15 15 15 15 15 15 15 15 15 15 14 15 15 15 15 15 15 15 15 15 15 15 16 16 16 16 16 16 16 16 16 17 17
15 15 15 15 15 15 14 14 14 14 14 14 14 14 14 14 14 15 14 14 14 14 14 15 15 15 15 15 15 15 15 15 15 16 16 16 16 16 16 16 16 16 16
15 15 15 15 15 14 14 14 14 14 14 14 14 14 14 13 13 14 14 14 14 14 14 14 14 14 14 14 15 15 15 15 15 15 15 15 15 16 16 16 16 16 16
15 15 15 15 15 14 14 14 14 14 14 13 13 13 13 13 13 13 13 14 14 14 14 14 14 14 14 14 14 14 14 15 15 15 15 15 15 15 15 15 15 16 16
15 15 15 15 14 14 14 14 14 14 13 13 13 13 13 13 13 13 13 13 13 13 14 14 14 14 14 14 14 14 14 14 14 15 15 15 15 15 15 15 15 15 16
15 15 15 14 14 14 14 14 14 14 13 13 13 13 13 13 13 13 12 12 12 13 13 13 13 13 13 13 14 14 14 14 14 14 14 14 14 15 15 15 15 15 15
15 15 15 14 14 14 14 14 13 13 13 13 13 13 13 13 12 12 12 12 12 12 13 13 13 13 13 13 13 13 13 13 14 14 14 14 14 14 14 14 15 15 15
15 15 14 14 14 14 14 13 13 13 13 13 13 13 13 12 12 12 12 12 12 12 12 12 12 13 13 13 13 13 13 13 13 13 14 14 14 14 14 14 14 14 15
15 15 14 14 14 14 13 13 13 13 13 13 12 12 12 12 12 12 12 12 12 12 11 11 12 12 12 12 12 13 13 13 13 13 13 13 14 14 14 14 14 14 14
15 15 14 14 14 13 13 13 13 13 12 12 12 12 12 12 12 12 12 12 12 11 11 11 11 12 12 12 12 12 12 13 13 13 13 13 13 13 13 13 13 14 14
15 14 14 14 14 13 13 13 13 12 12 12 12 12 12 12 12 12 11 11 11 11 11 11 11 11 12 12 12 12 12 12 12 12 13 13 13 13 13 13 13 13 13
15 14 14 14 13 13 13 13 13 12 12 12 12 12 12 11 11 11 11 11 11 11 11 11 11 11 11 11 12 12 12 12 12 12 12 12 12 12 12 13 13 13 13
14 14 14 14 13 13 13 12 12 12 12 12 12 11 11 11 11 11 11 11 11 11 11 11 11 11 11 11 11 11 12 12 12 12 12 12 12 12 12 12 12 12 12
14 14 14 13 13 13 12 12 12 12 12 11 11 11 11 11 11 11 10 10 10 10 10 10 10 10 10 10 10 10 10 11 11 11 11 11 11 12 12 12 12 12 12
14 14 14 13 13 12 12 12 12 12 11 11 11 11 11 11 11 11 10 10 10 10 10 10 10 10 10 10 9 9 9 10 10 10 10 11 11 11 11 11 11 11 12
14 14 13 13 13 12 12 12 12 11 11 11 11 11 11 10 10 10 10 10 10 10 10 9 9 9 9 9 9 9 9 9 9 9 10 10 10 10 11 11 11 11 11
14 14 13 13 13 12 12 12 11 11 11 11 11 10 10 10 10 10 10 10 10 10 9 9 9 9 9 9 9 9 9 9 9 9 9 9 10 10 10 10 10 10 10
14 13 13 13 12 12 12 11 11 11 11 11 11 10 10 10 10 10 9 9 9 9 9 9 9 9 9 9 9 8 9 8 9 9 9 8 9 9 9 10 10 10 10
13 13 13 13 12 12 12 11 11 11 11 11 10 10 10 10 10 9 9 9 9 9 9 9 9 9 9 9 8 8 8 8 8 8 8 8 8 8 8 8 9 9 9
Wind_Speed
3 4 5 6 7 7 5 5 5 5 5 5 5 5 4 4 3 2 2 1 0 1 0 1 2 2 3 4 4 4 3 2 2 2 2 2 3 4 6 8 9 9 10
6 5 5 5 6 7 6 5 5 4 3 3 4 4 4 3 3 3 3 3 2 1 1 1 2 2 3 4 4 4 3 1 1 2 2 3 3 4 6 7 9 9 9
8 6 4 4 6 8 8 7 6 5 4 4 5 4 3 4 4 3 4 4 3 3 2 2 2 3 3 4 5 5 4 1 1 2 3 4 4 4 6 7 8 9 9
10 8 4 4 7 8 7 4 5 4 5 4 4 4 3 3 3 3 4 4 4 3 3 3 3 3 4 4 5 5 4 2 1 2 2 3 5 5 5 7 7 8 8
10 8 5 5 8 7 5 4 5 3 4 4 3 4 4 4 3 4 4 5 5 4 3 4 4 3 4 5 5 5 5 4 3 2 2 3 5 5 5 6 7 7 7
9 8 5 6 7 5 5 5 4 4 3 3 4 5 4 4 4 4 4 5 6 6 5 5 4 3 4 5 5 5 5 5 4 3 2 2 4 5 5 6 6 6 7
9 8 5 5 5 4 4 5 4 5 5 4 4 4 5 5 6 5 4 4 6 7 6 6 5 4 3 4 5 5 5 5 4 3 2 2 3 4 5 5 6 6 6
8 7 5 4 4 4 6 6 4 3 4 5 3 3 4 5 5 6 5 5 6 6 6 7 6 5 5 4 5 5 5 5 5 5 3 2 2 3 4 5 6 6 6
8 7 6 5 4 3 4 4 4 4 4 4 3 3 3 1 3 4 5 5 6 5 5 6 8 7 6 5 5 5 5 5 5 5 4 3 1 2 3 4 4 5 6
6 7 7 6 5 3 4 4 4 3 4 3 3 3 2 2 1 3 4 5 6 5 6 5 6 7 8 6 5 5 6 5 5 5 5 4 2 1 2 4 4 4 5
5 6 6 6 4 3 4 4 5 4 3 3 2 2 3 3 2 2 2 5 5 4 5 4 4 6 8 7 6 5 6 6 5 5 5 4 4 3 2 3 5 5 5
3 4 5 5 4 3 3 3 4 5 4 4 3 3 2 2 1 1 0 2 3 4 4 4 4 6 7 8 7 7 6 6 6 6 5 5 4 4 4 4 4 5 5
1 2 3 3 3 3 4 4 4 4 4 4 3 2 2 1 0 1 1 1 2 3 4 4 4 7 8 8 8 8 8 7 7 7 6 5 5 5 5 4 3 3 4
1 0 2 3 3 4 4 4 4 3 3 4 4 3 2 2 1 1 1 1 2 3 3 4 3 6 8 8 9 9 8 9 8 7 7 6 5 5 5 5 4 4 5
1 2 3 3 3 4 4 4 3 3 3 3 3 3 3 2 2 2 1 1 2 1 3 4 3 5 8 8 9 8 8 9 9 9 8 7 5 5 5 5 5 4 4
2 2 2 3 3 3 4 3 3 3 4 3 2 3 3 2 3 2 2 1 1 2 1 3 3 4 6 8 9 9 8 9 9 9 9 8 7 7 6 6 6 6 6
2 3 2 3 2 3 3 3 3 3 4 3 3 3 3 3 3 3 2 2 2 1 1 3 3 3 4 5 7 8 8 8 8 9 9 9 8 7 7 7 7 6 6
2 3 3 3 3 2 2 3 2 3 2 3 3 3 3 3 3 3 2 2 1 0 1 2 3 3 4 5 5 5 7 7 8 8 9 10 10 9 8 8 8 7 7
3 3 3 3 2 2 2 2 2 2 2 1 1 1 2 2 2 2 2 2 2 2 0 1 3 3 3 4 4 5 5 5 7 8 8 9 10 10 10 10 9 8 8
4 3 3 2 2 2 1 1 2 2 2 2 2 1 1 1 1 1 1 1 1 2 2 1 3 3 3 4 3 4 5 4 4 6 8 8 9 10 11 11 11 10 10
4 3 3 2 1 1 1 2 1 2 2 2 2 2 2 3 2 1 1 1 1 1 1 2 2 3 3 3 4 3 4 5 4 3 3 5 6 6 8 10 10 11 10
3 3 3 2 1 0 1 1 2 1 0 1 1 2 3 3 4 5 4 2 1 1 1 1 2 2 4 3 3 3 3 3 4 3 3 4 3 4 6 8 11 12 11
4 3 2 2 2 2 2 1 1 1 0 1 1 1 2 3 4 2 4 5 4 5 4 2 2 4 4 4 3 3 3 3 4 4 2 4 3 4 7 10 13 13 11
4 4 4 3 3 3 3 2 1 1 0 1 2 2 1 3 3 2 2 3 4 4 5 3 3 5 5 5 4 4 4 4 4 4 2 3 4 4 6 8 12 12 11
4 4 4 4 4 4 5 4 2 1 1 2 2 2 2 2 5 4 2 3 4 5 6 7 8 8 10 10 7 3 3 3 4 4 2 2 3 4 4 4 8 10 10
5 5 4 4 5 5 7 6 4 2 1 2 2 3 5 5 6 5 2 3 4 6 6 6 7 8 8 9 9 5 4 3 3 4 3 1 3 3 3 3 4 6 8
Wind_Direction
54 44 35 31 23 24 20 14 12 13 18 18 24 30 30 36 43 43 21 20 189 195 107 31 29 26 19 18 20 12 13 46 104 120 134 138 142 155 160 161 158 156 152
62 52 39 31 23 22 25 29 25 23 19 19 14 18 27 30 41 36 21 358 337 333 318 336 356 4 8 9 11 2 353 10 142 147 152 151 142 150 157 158 157 157 156
61 58 45 27 19 26 31 32 25 28 27 25 16 10 29 29 27 16 18 6 342 333 336 338 353 357 3 6 7 4 359 32 139 154 156 157 153 148 151 153 153 153 157
63 61 48 25 26 34 30 27 24 23 19 16 11 9 17 21 20 18 25 20 13 10 359 350 357 2 10 13 11 3 20 40 79 126 142 150 157 157 151 154 156 154 155
63 65 52 32 36 36 23 24 29 25 19 8 8 21 15 15 5 31 30 25 25 19 6 2 8 12 23 21 11 14 30 37 52 79 114 141 153 156 157 157 162 160 162
62 61 52 37 39 37 25 24 26 22 20 5 21 19 7 9 18 26 24 31 30 28 27 16 11 359 11 13 3 12 25 28 34 51 75 143 162 163 162 161 164 166 169
60 61 51 38 37 43 32 28 26 23 14 9 35 10 358 13 28 21 17 27 27 24 27 23 22 11 357 359 2 5 10 16 21 37 57 118 153 163 168 169 169 171 173
57 61 56 46 38 42 34 30 36 32 19 27 63 54 12 358 358 8 14 22 12 20 23 24 21 18 14 8 357 1 3 8 17 23 34 62 153 167 173 179 179 178 180
59 60 59 59 46 53 46 34 40 56 36 18 45 97 92 348 326 340 5 15 8 11 5 18 26 21 21 16 3 5 6 7 10 15 20 31 68 185 189 191 189 189 187
54 59 61 64 59 53 49 39 50 53 64 33 16 38 98 158 104 339 338 352 5 13 3 9 14 14 15 13 9 16 14 6 8 10 11 10 354 322 220 213 210 209 204
37 50 60 62 56 50 51 47 47 49 60 67 43 25 38 43 68 112 336 336 345 346 351 352 6 7 8 10 6 8 15 12 9 8 6 2 357 350 314 253 230 221 220
10 26 54 59 56 52 51 49 51 53 54 60 56 53 65 59 24 86 336 322 327 322 335 349 5 3 5 7 3 360 4 9 8 2 359 358 355 346 327 297 248 229 232
9 352 41 52 50 49 57 61 57 49 48 55 53 48 52 52 124 139 124 319 331 319 333 344 349 1 5 6 1 1 2 3 4 358 350 347 346 343 334 322 274 249 249
199 191 71 63 56 58 63 63 56 42 48 51 49 46 42 19 33 98 154 141 2 342 342 324 325 355 360 2 0 3 1 3 1 356 352 347 343 339 337 334 319 289 271
164 101 81 75 59 60 63 66 55 36 42 41 39 43 40 12 20 34 78 147 143 347 322 314 330 335 350 358 358 1 357 358 2 3 356 351 350 345 333 322 310 306 298
94 91 81 80 63 54 59 63 50 39 48 28 34 42 27 5 13 20 33 51 131 167 265 298 299 306 337 351 353 357 351 351 357 1 3 359 356 353 341 331 323 313 305
112 115 111 96 81 64 58 64 48 46 48 26 21 34 14 4 17 10 23 36 43 128 231 300 301 317 340 340 346 354 354 352 348 352 358 356 353 350 346 340 332 322 314
113 114 106 99 91 78 67 70 54 51 52 27 11 24 4 14 16 8 24 20 2 332 185 301 316 327 329 327 332 339 350 347 344 344 350 352 349 342 337 334 329 319 309
121 106 103 102 101 98 87 79 84 67 39 17 8 11 338 17 2 346 360 2 345 1 24 297 309 313 315 328 337 335 340 341 341 345 347 344 343 339 333 327 325 319 313
132 127 126 129 127 121 106 86 81 57 23 2 354 349 320 316 254 278 336 334 355 14 3 347 320 320 319 320 342 340 336 333 330 340 340 337 337 339 335 328 324 320 315
147 146 134 122 115 122 135 115 94 73 35 7 357 348 330 337 334 320 320 293 10 17 353 344 326 330 324 330 329 325 327 320 318 321 325 329 335 334 331 326 321 317 313
151 142 144 146 147 189 141 124 113 103 54 10 338 329 332 354 357 357 350 338 325 303 274 274 286 291 290 287 296 310 315 332 319 316 330 309 322 312 317 316 315 316 313
167 165 178 171 195 230 216 158 109 131 145 249 255 288 329 340 347 346 338 338 330 327 303 249 250 265 272 269 276 294 290 280 275 284 307 295 308 303 310 316 318 319 316
177 185 198 199 209 238 239 239 245 121 177 257 249 235 256 301 308 320 335 335 318 312 304 294 248 258 262 260 247 256 263 278 277 281 270 280 297 293 304 312 319 324 323
191 201 204 203 213 243 249 249 249 169 237 275 269 250 249 265 295 308 322 307 310 308 308 309 301 296 298 299 294 289 295 302 300 292 271 247 287 299 299 301 316 322 322
203 204 214 217 217 232 248 249 241 191 228 264 281 274 275 274 289 296 274 265 284 288 298 309 314 312 308 303 297 263 234 247 269 282 264 243 282 314 311 297 304 313 318
Height
1556 1555 1553 1552 1551 1549 1548 1547 1546 1545 1544 1544 1544 1543 1543 1543 1543 1542 1542 1542 1541 1541 1540 1539 1539 1538 1537 1535 1534 1533 1531 1530 1530 1532 1532 1533 1533 1533 1534 1536 1538 1540 1542
1556 1555 1554 1553 1551 1550 1549 1548 1547 1546 1545 1544 1544 1543 1543 1543 1543 1542 1542 1542 1541 1541 1540 1539 1538 1537 1536 1535 1534 1532 1531 1530 1530 1531 1532 1533 1533 1533 1534 1535 1537 1540 1542
1558 1556 1555 1553 1552 1551 1550 1548 1547 1546 1546 1545 1544 1544 1543 1543 1543 1543 1542 1542 1541 1541 1540 1540 1538 1538 1536 1535 1534 1532 1529 1528 1529 1530 1532 1532 1533 1533 1534 1536 1538 1541 1543
1559 1557 1556 1554 1553 1551 1550 1549 1548 1547 1546 1545 1545 1544 1544 1544 1543 1543 1543 1542 1541 1541 1540 1540 1539 1538 1537 1535 1534 1531 1528 1528 1528 1529 1531 1532 1533 1534 1535 1537 1539 1542 1543
1560 1558 1557 1555 1554 1552 1551 1550 1549 1548 1547 1546 1545 1545 1545 1544 1544 1544 1543 1543 1542 1541 1541 1540 1539 1538 1537 1536 1534 1532 1530 1529 1529 1530 1531 1531 1533 1534 1536 1538 1540 1542 1544
1561 1559 1558 1556 1555 1553 1552 1551 1550 1549 1548 1547 1546 1546 1545 1545 1545 1545 1544 1543 1543 1542 1541 1541 1540 1538 1537 1536 1534 1533 1532 1531 1531 1531 1531 1532 1533 1534 1536 1538 1540 1542 1543
1561 1560 1559 1557 1556 1554 1553 1552 1551 1549 1548 1548 1547 1546 1546 1546 1546 1545 1545 1544 1544 1543 1542 1541 1540 1539 1538 1537 1535 1534 1533 1533 1532 1532 1532 1532 1533 1535 1537 1538 1540 1541 1543
1562 1561 1559 1558 1556 1555 1553 1552 1551 1550 1549 1548 1548 1547 1547 1548 1547 1546 1546 1545 1544 1543 1542 1541 1540 1539 1538 1537 1536 1535 1534 1534 1533 1533 1533 1533 1534 1535 1537 1538 1539 1541 1542
1562 1561 1560 1558 1557 1555 1554 1553 1552 1551 1550 1549 1549 1549 1548 1548 1547 1547 1546 1545 1545 1544 1543 1542 1541 1540 1539 1538 1537 1536 1535 1534 1534 1533 1533 1533 1534 1535 1536 1537 1539 1540 1541
1563 1562 1561 1559 1558 1556 1555 1554 1553 1552 1551 1550 1550 1549 1549 1549 1548 1547 1547 1546 1545 1544 1543 1542 1541 1540 1539 1538 1537 1536 1536 1535 1534 1534 1533 1533 1533 1534 1534 1536 1537 1539 1540
1563 1562 1561 1560 1559 1557 1556 1555 1554 1553 1552 1551 1550 1550 1549 1549 1548 1548 1547 1546 1545 1545 1544 1543 1542 1540 1539 1538 1537 1536 1536 1535 1534 1534 1533 1533 1533 1533 1533 1533 1534 1537 1538
1564 1563 1562 1561 1559 1558 1557 1556 1554 1553 1552 1552 1551 1550 1549 1549 1548 1548 1547 1545 1544 1544 1543 1543 1541 1540 1539 1538 1537 1536 1535 1535 1534 1533 1533 1532 1532 1531 1531 1529 1530 1533 1536
1564 1563 1562 1561 1560 1558 1557 1556 1555 1554 1553 1552 1551 1550 1550 1549 1548 1548 1547 1545 1544 1544 1543 1542 1541 1540 1539 1538 1537 1536 1535 1534 1533 1533 1532 1532 1531 1530 1529 1527 1528 1531 1534
1564 1563 1562 1561 1560 1559 1558 1556 1555 1554 1553 1552 1551 1551 1550 1549 1548 1547 1546 1545 1544 1543 1542 1541 1541 1540 1538 1538 1536 1535 1534 1533 1533 1532 1531 1531 1530 1530 1529 1528 1529 1530 1532
1563 1563 1562 1561 1560 1559 1558 1557 1555 1554 1553 1552 1552 1551 1550 1548 1547 1546 1546 1545 1545 1542 1541 1540 1540 1539 1538 1537 1536 1534 1533 1533 1532 1531 1530 1530 1529 1528 1528 1528 1529 1529 1530
1563 1562 1561 1561 1560 1559 1558 1556 1555 1554 1553 1552 1551 1550 1549 1548 1547 1546 1545 1544 1543 1542 1541 1540 1539 1538 1537 1536 1535 1533 1532 1531 1530 1530 1529 1528 1527 1527 1527 1527 1527 1527 1528
1562 1561 1561 1560 1559 1558 1557 1556 1555 1554 1553 1552 1551 1550 1548 1547 1546 1545 1544 1543 1542 1541 1540 1539 1538 1537 1535 1534 1533 1532 1530 1529 1529 1528 1527 1526 1525 1525 1525 1525 1524 1524 1525
1561 1560 1560 1559 1558 1557 1556 1555 1554 1553 1552 1551 1550 1549 1548 1546 1545 1544 1543 1542 1541 1540 1539 1537 1536 1535 1534 1532 1531 1529 1528 1527 1526 1525 1525 1524 1523 1522 1522 1522 1521 1521 1521
1559 1559 1559 1558 1557 1556 1555 1554 1553 1552 1551 1550 1549 1548 1547 1545 1544 1543 1542 1541 1540 1539 1537 1536 1534 1533 1532 1530 1529 1528 1526 1525 1524 1523 1522 1521 1520 1520 1519 1518 1517 1517 1516
1558 1558 1557 1556 1556 1555 1554 1553 1552 1551 1550 1549 1548 1547 1546 1544 1543 1542 1540 1539 1538 1537 1536 1534 1533 1531 1530 1528 1527 1525 1523 1523 1521 1521 1519 1518 1518 1517 1516 1515 1514 1512 1511
1556 1556 1555 1555 1554 1554 1553 1552 1551 1549 1548 1548 1547 1546 1544 1543 1542 1540 1539 1538 1536 1535 1534 1532 1531 1529 1528 1526 1525 1523 1521 1520 1519 1518 1516 1515 1514 1513 1512 1511 1509 1508 1506
1554 1554 1553 1553 1552 1552 1551 1550 1549 1548 1547 1546 1545 1544 1543 1542 1540 1539 1537 1536 1535 1533 1532 1530 1529 1527 1526 1524 1523 1521 1519 1517 1515 1516 1513 1512 1511 1509 1508 1507 1505 1503 1501
1552 1552 1551 1551 1550 1550 1549 1548 1547 1546 1545 1544 1543 1542 1541 1540 1539 1537 1535 1534 1533 1531 1530 1529 1527 1525 1523 1522 1520 1518 1517 1515 1513 1512 1511 1508 1507 1505 1504 1503 1501 1499 1497
1549 1549 1549 1549 1548 1548 1547 1546 1545 1544 1543 1542 1541 1540 1539 1538 1536 1535 1533 1532 1530 1529 1527 1525 1524 1522 1521 1519 1517 1516 1514 1512 1511 1509 1508 1505 1503 1501 1500 1499 1497 1495 1494
1546 1546 1546 1546 1546 1545 1545 1544 1543 1542 1541 1540 1539 1538 1536 1535 1534 1532 1531 1529 1527 1526 1524 1522 1521 1519 1517 1516 1514 1512 1510 1508 1506 1505 1504 1502 1499 1497 1495 1494 1493 1492 1490
1543 1543 1543 1543 1543 1542 1542 1541 1540 1539 1538 1536 1536 1534 1533 1532 1530 1529 1527 1525 1523 1522 1520 1518 1517 1515 1513 1512 1510 1509 1507 1505 1503 1501 1500 1498 1496 1494 1490 1489 1488 1487 1486